This is the latest recevied weather packets stored in our database for station/object JS1SZZ-13. If no packets are shown the sender has not sent any weather packets the latest 10 day(s).
| Time | Temp. | Humidity | Pressure | Rain* | Wind** | Luminosity | Snow |
|---|---|---|---|---|---|---|---|
| 1787663573 | 21.11° C | 91% | 1011.7 hPa | 0 mm | - | - | - |
| 1787662658 | 21.11° C | 91% | 1011.7 hPa | 0 mm | - | - | - |
| 1787661759 | 21.67° C | 91% | 1011.9 hPa | 0 mm | - | - | - |
| 1787660858 | 21.11° C | 91% | 1012.1 hPa | 0 mm | - | - | - |
| 1787659960 | 21.67° C | 93% | 1012.2 hPa | 0 mm | - | - | - |
| 1787659059 | 21.67° C | 93% | 1012.1 hPa | 0 mm | - | - | - |
| 1787658158 | 21.67° C | 92% | 1012.2 hPa | 0 mm | - | - | - |
| 1787657259 | 21.67° C | 92% | 1011.9 hPa | 0 mm | - | - | - |
| 1787656358 | 21.67° C | 92% | 1011.8 hPa | 0 mm | - | - | - |
| 1787655460 | 21.67° C | 92% | 1011.8 hPa | 0 mm | - | - | - |
| 1787654559 | 21.67° C | 92% | 1011.7 hPa | 0 mm | - | - | - |
| 1787653659 | 21.67° C | 92% | 1011.4 hPa | 0 mm | - | - | - |
| 1787652758 | 22.22° C | 92% | 1011.6 hPa | 0 mm | - | - | - |
| 1787651860 | 22.22° C | 91% | 1011.5 hPa | 0 mm | - | - | - |
| 1787650959 | 22.78° C | 90% | 1011.5 hPa | 0 mm | - | - | - |
| 1787650059 | 22.78° C | 88% | 1011.7 hPa | 0.51 mm | - | - | - |
| 1787649158 | 23.33° C | 85% | 1011.3 hPa | 1.78 mm | - | - | - |
| 1787648258 | 23.89° C | 82% | 1011.3 hPa | 1.78 mm | - | - | - |
| 1787647360 | 23.89° C | 86% | 1011.2 hPa | 1.78 mm | - | - | - |
| 1787646460 | 25.56° C | 74% | 1010.9 hPa | 1.02 mm | - | - | - |
| 1787645559 | 28.33° C | 76% | 1010.8 hPa | 0 mm | - | - | - |
| 1787644659 | 28.89° C | 71% | 1010.1 hPa | 0 mm | - | - | - |
| 1787643758 | 29.44° C | 70% | 1010.2 hPa | 0 mm | - | - | - |
| 1787642859 | 30° C | 66% | 1010.1 hPa | 0 mm | - | - | - |
| 1787641959 | 30.56° C | 58% | 1009.7 hPa | 0 mm | - | - | - |
* Rain latest hour (hover to see other rain measurements)
** Current wind speed in m/s (hover to see current wind gust speed)